sat.trackr.live / text

‹ back to catalog

STARLINK-32739

NORAD 62498 · 2025-003M

PAYLOAD ACTIVE UNKNOWN

§ Identity

Operator
Country
US
Launch date
2025-01-06
Launch site
AFETR
Launch vehicle
Mass (kg)
RCS (m²)

Purposes: comms

External: N2YO · Heavens-Above · Gunter

§ Orbital elements

Epoch: 2026-05-25T04:53:39.813792Z

Period
94.27 min
Inclination
42.9996°
Eccentricity
0.0001319
Mean motion
15.27587757 rev/d
Perigee alt
482.1 km
Apogee alt
483.9 km
Semi-major
6,861.2 km
B*
6.6954e-4
RAAN
216.8380°
Arg perigee
276.4779°
Mean anomaly
83.5922°
Rev number
7,832

§ Raw data

STARLINK-327391 62498U 25003M   26145.20393303  .00018212  00000+0  66954-3 0  99962 62498  42.9996 216.8380 0001319 276.4779  83.5922 15.27587757 78327

JSON: /api/v1/satellites/62498 · /tle

For live sub-satellite position, see the globe view (requires WebGL).

§ Visibility from observer

Set your observer location to see the next 7 days of passes ≥ 10°. The values pass through the URL so the page stays shareable.

No JS? Fill the form by hand. The geolocation button needs JavaScript.